STARLINK-36102

Last updated on Mon Dec 15 2025 00:02:12 GMT+0000 (Coordinated Universal Time)

1 66849U 25281B 25348.25003472 -.01146633 00000+0 -48079-2 0 9991 2 66849 43.0008 113.0375 0001355 269.9840 251.8530 15.87303718 1640
UTC large
Height (km)
Speed (km/s)
/
Latitude / Longitude
Inclination (degrees)
Orbital Period (minutes)
Azimuth
Elevation
Range (km)
Doppler Factor

Next 0 passes for location: London (51.5072 / 0.1276)

Sorry there are no passes over London.